Weather in Sylva

Russia / Perm Krai     58°01′50″N   56°44′46″E
temp.,
°C
wind,
m/s
gust,
m/s
humid.,
%
clouds,
%
prec.,
mm/h
press.,
hPa
HPBL,
m
1 march, mon
mon123:00−16ene3995100 0.4 1013499
02:00−16ene279699 0.2 1015405
05:00−17ne369697 0.4 1016247
08:00−20ne259885 0.1 1017139
11:00−17ene239183 0.1 1018256
14:00−11ese118290 0.0 1017468
17:00−11wsw018495 0.0 1017465
20:00−16ssw129699 0.0 101520
2 march, tue
tue223:00−18ssw239882 0.0 101552
02:00−19s389867 0.0 1012172
05:00−18s3109582 0.0 1010329
08:00−16s51095100 0.1 1006417
11:00−15s51094100 1.1 1004495
14:00−12s51092100 1.0 1001616
17:00−11s4993100 1.7 1000622
20:00−12s31094100 0.4 998426
3 march, wed
wed323:00−11sse3995100 0.8 997364
02:00−10sse3795100 0.4 995280
05:00−10sse2596100 0.9 995171
08:00−10ene1197100 0.8 99421
11:00−8nnw239399 0.8 995250
14:00−5wnw2387100 0.0 995489
17:00−4wsw2390100 0.1 996472
20:00−6sw2497100 0.4 996130
4 march, thu
thu423:00−6wnw3895100 0.8 997427
02:00−8wnw389594 0.2 996346
05:00−11w379592 0.4 998234
08:00−13wsw3896100 0.1 998223
11:00−10wsw379398 0.2 999369
14:00−7wsw4688100 0.1 999727
17:00−7wsw4888100 0.2 998820
20:00−10ssw3794100 0.0 997202
5 march, fri
fri523:00−9s31095100 0.2 995465
02:00−7s41194100 0.9 991767
05:00−5s41195100 2.3 988654
08:00−3s3897100 1.6 985449
11:00−3w51092100 3.7 985929
14:00−5w61189100 0.4 989926
17:00−7wnw71288100 0.7 9961004
20:00−11w51288100 0.1 1002766